TimeCDT,TemperatureF,Dew PointF,Humidity,Sea Level PressureIn,VisibilityMPH,Wind Direction,Wind SpeedMPH,Gust SpeedMPH,PrecipitationIn,Events,Conditions,WindDirDegrees,DateUTC
12:53 AM,57.0,30.9,37,29.81,10.0,NW,3.5,-,N/A,,Clear,320,2013-05-22 05:53:00
1:53 AM,60.1,34.0,38,29.83,10.0,ENE,9.2,-,N/A,,Clear,70,2013-05-22 06:53:00
2:53 AM,57.0,35.1,44,29.81,10.0,NE,6.9,-,N/A,,Clear,50,2013-05-22 07:53:00
3:53 AM,52.0,35.1,53,29.81,10.0,NNE,4.6,-,N/A,,Clear,20,2013-05-22 08:53:00
4:53 AM,51.1,36.0,56,29.83,10.0,NNW,4.6,-,N/A,,Clear,340,2013-05-22 09:53:00
5:53 AM,50.0,37.0,61,29.83,10.0,NNW,3.5,-,N/A,,Clear,330,2013-05-22 10:53:00
6:53 AM,46.9,36.0,66,29.86,10.0,WSW,4.6,-,N/A,,Clear,250,2013-05-22 11:53:00
7:53 AM,55.0,37.9,53,29.87,10.0,Calm,Calm,-,N/A,,Clear,0,2013-05-22 12:53:00
8:53 AM,59.0,39.9,49,29.88,10.0,ESE,5.8,-,N/A,,Clear,110,2013-05-22 13:53:00
9:53 AM,62.1,41.0,46,29.88,10.0,East,8.1,-,N/A,,Clear,90,2013-05-22 14:53:00
10:53 AM,66.9,41.0,39,29.87,10.0,East,10.4,-,N/A,,Clear,90,2013-05-22 15:53:00
11:53 AM,72.0,39.9,31,29.86,10.0,SE,9.2,18.4,N/A,,Clear,140,2013-05-22 16:53:00
12:53 PM,75.0,39.9,28,29.84,10.0,South,8.1,-,N/A,,Clear,170,2013-05-22 17:53:00
1:53 PM,78.1,42.1,28,29.80,10.0,SE,10.4,19.6,N/A,,Clear,140,2013-05-22 18:53:00
2:53 PM,82.9,43.0,24,29.75,10.0,SE,11.5,21.9,N/A,,Clear,140,2013-05-22 19:53:00
3:53 PM,84.9,44.1,24,29.74,10.0,SSE,11.5,23.0,N/A,,Clear,160,2013-05-22 20:53:00
4:53 PM,87.1,44.1,22,29.71,10.0,SSE,12.7,21.9,N/A,,Clear,160,2013-05-22 21:53:00
5:53 PM,87.1,37.9,18,29.69,10.0,South,8.1,16.1,N/A,,Clear,180,2013-05-22 22:53:00
6:53 PM,88.0,37.9,17,29.68,10.0,SSE,5.8,16.1,N/A,,Clear,150,2013-05-22 23:53:00
7:53 PM,86.0,39.9,20,29.68,10.0,SE,9.2,-,N/A,,Clear,140,2013-05-23 00:53:00
8:53 PM,80.1,42.1,26,29.71,10.0,ESE,12.7,-,N/A,,Clear,120,2013-05-23 01:53:00
9:53 PM,77.0,42.1,29,29.73,10.0,ESE,13.8,-,N/A,,Clear,110,2013-05-23 02:53:00
10:53 PM,73.9,41.0,30,29.75,10.0,ESE,13.8,-,N/A,,Clear,110,2013-05-23 03:53:00
11:53 PM,71.1,42.1,35,29.78,10.0,East,16.1,21.9,N/A,,Clear,90,2013-05-23 04:53:00